TITAN 3C TRANSTAGE DEB, 43453

Orbit data source: Space-Track

TITAN 3C TRANSTAGE DEB, 43453 is space debris in GEO originally from a launch on Sun, 09 Feb 1969 UTC launched from the Air Force Eastern Test Range (AFETR). Debris objects in space refer to the collection of defunct objects orbiting the Earth. Examples of debris include non-operational satellites, rocket bodies, and fragments generated from explosions, collisions, or faulty payload assembly.

Not visible in the next 10 days
Identifier
43453, 1969-013L
Orbit
GEO
Last TLE update
2 days ago
Origin
Manufacturer
Martin Marietta
Mission
Spacecraft
Bus & Motor
Unknown
Mass
Unknown
Launch date (UTC)
1969-02-09 (56 years ago)
Launch vehicle
Unknown
Launch site
Air Force Eastern Test Range (AFETR)
Object type
Payload
Rocket body
Debris
Shape & HBR
Unknown
Radar Cross Section
RCS unknown

Expand to show TLE details & history

TLE from 2 days ago
0 TITAN 3C TRANSTAGE DEB
1 43453U 69013L   25127.68921931 -.00000184  00000-0  00000-0 0  9998
2 43453   1.1976 183.1986 0893411 281.5983  69.4490  1.07407096 27682
Epoch: 2025-05-07T16:32Z
Definitive object data (Epoch: 2025-05-07T16:32:28.548Z)
Latitude
Longitude
70.26637°
Altitude
32,941.992 km
Speed
3.222 km/s
True Right ascension
12h 16m 37s
True Declination
0° 00' 00"
Sunlit
Object was in daylight at TLE epoch
Visualization TLE readout
Latitude
-0.93084°
Longitude
-58.913°
Altitude
31,397.312 km
Speed
3.348 km/s
Apparent Right ascension
03h 31m 32s
Apparent Declination
-6° 17' 49"
Sunlit
Object is in daylight
Visualization observer readout
Local Sidereal Time
14:26:12
Azimuth
332.098° NNW
Elevation
-53.318°
Doppler factor
1
Orbital elements
Apogee altitude
37,497.416 km
Perigee altitude
30,300.607 km
Semi-major axis
40,277.149 km
Eccentricity
0.0893411
Inclination
1.1976°
RAAN
183.1986°
Arg. of periapsis
281.5983°
True anomaly
79.37555°
Mean anomaly
69.449°
Eccentric anomaly
74.37879°
Mean motion
0.26851 °/min
BSTAR
Unknown
Orbital period
1340.75 mins
Loading historical data...
43453 neighbors
Loading maneuver chart data...
Loading SW <> Apogee altitude chart data...

TITAN 3C TRANSTAGE DEB Visibility forecast

Observer location: undefined°, undefined°

TITAN 3C TRANSTAGE DEB is not visible in the next 10 days
Span
Click to sort rows by Start time (UTC) header in descending order
Start Az.
Max El. time (UTC)
Max El. Az.
Max El.
End time (UTC)
End Az.
|